Overview Statistics Trail Chart Weather Telemetry Raw packets
 

This is the latest recevied weather packets stored in our database for station/object EA1HTW-13. If no packets are shown the sender has not sent any weather packets the latest 10 day(s).

<< 14 15 16 17 18 19 20 >>
Time Temp. Humidity Pressure Rain* Wind** Luminosity Snow
1777807035 16.67° C 74% 1007 hPa 0 mm - - -
1777806493 16.67° C 75% 1007.1 hPa 0 mm - - -
1777805955 17.22° C 76% 1007.1 hPa 0 mm - - -
1777805414 16.67° C 78% 1007.1 hPa 0.25 mm - - -
1777804874 16.67° C 77% 1007.3 hPa 0.51 mm - - -
1777804333 16.67° C 79% 1007 hPa 1.27 mm - - -
1777803795 16.11° C 80% 1007.1 hPa 2.29 mm - - -
1777803255 16.11° C 81% 1007 hPa 3.05 mm - - -
1777802714 16.11° C 83% 1006.9 hPa 3.3 mm - - -
1777802174 16.11° C 85% 1006.9 hPa 3.3 mm - - -
1777801635 15.56° C 85% 1007 hPa 3.3 mm - - -
1777801094 15° C 85% 1007.1 hPa 3.05 mm - - -
1777800554 15° C 84% 1007.1 hPa 2.03 mm - - -
1777800014 15° C 84% 1007 hPa 1.27 mm - - -
1777799474 15° C 85% 1007 hPa 1.02 mm - - -
1777798935 15° C 85% 1007.1 hPa 1.02 mm - - -
1777798394 15° C 86% 1007 hPa 1.27 mm - - -
1777797854 15° C 86% 1007.1 hPa 1.52 mm - - -
1777797314 14.44° C 86% 1006.9 hPa 2.03 mm - - -
1777796775 14.44° C 87% 1007 hPa 2.79 mm - - -
1777796234 14.44° C 87% 1006.9 hPa 4.32 mm - - -
1777795695 13.89° C 87% 1006.9 hPa 6.1 mm - - -
1777795154 13.89° C 87% 1006.8 hPa 8.38 mm - - -
1777794615 13.89° C 88% 1006.7 hPa 10.92 mm - - -
1777794075 13.89° C 88% 1006.8 hPa 12.95 mm - - -

* Rain latest hour (hover to see other rain measurements)
** Current wind speed in m/s (hover to see current wind gust speed)